Location: Chervonnoye
(48.6000°N, 34.4000°E)
Time: 00:40:43
(UTC+00:00)

KAITUO 1B - Pass Details

Date: 04 December 2021
Orbit: 486 x 507 km, 97.4° (Epoch: 16 January)

Event Time Altitude Azimuth Distance (km) Brightness Sun altitude
Rises 15:30:06 0° 175° (S) 2,593 ? -16.1°
Reaches altitude 10° 15:32:11 10° 179° (S) 1,716 ? -16.5°
Maximum altitude 15:35:50 58° 259° (W) 597 ? -17.0°
Drops below altitude 10° 15:39:33 10° 340° (NNW) 1,740 ? -17.6°
Sets 15:41:41 0° 344° (NNW) 2,632 ? -18.0°
